,,,PA_Meas_PMT16A,,PR_Meas_QMR101_102,,RH_Meas_QMH101,,SR_Meas_QMS101,,TA_Meas_QMH101,,GenWind,,GenWind,
date,time,status,PA,status,PR,status,RH,status,SR,status,TA,status,DirAvg,status,SpdAvg,
2010-02-18, 00:00:04,VALID,1001.52,VALID,0,VALID,89.7854,VALID,0,VALID,24.7941,VALID,63,VALID,0,
2010-02-18, 00:01:04,VALID,1001.5,VALID,0,VALID,89.9303,VALID,0,VALID,24.8136,VALID,63,VALID,0,
2010-02-18, 00:02:04,VALID,1001.52,VALID,0,VALID,90.0219,VALID,0,VALID,24.7941,VALID,63,VALID,0,
2010-02-18, 00:03:04,VALID,1001.52,VALID,0,VALID,89.9456,VALID,0,VALID,24.7941,VALID,63,VALID,0,
2010-02-18, 00:04:04,VALID,1001.53,VALID,0,VALID,89.9456,VALID,0,VALID,24.7941,VALID,63,VALID,0,
2010-02-18, 00:05:04,VALID,1001.51,VALID,0,VALID,89.9227,VALID,0,VALID,24.7532,VALID,63,VALID,0,
2010-02-18, 00:06:04,VALID,1001.51,VALID,0,VALID,89.8769,VALID,0,VALID,24.7551,VALID,63,VALID,0,
2010-02-18, 00:07:04,VALID,1001.5,VALID,0,VALID,89.9151,VALID,0,VALID,24.7356,VALID,63,VALID,0,
2010-02-18, 00:08:04,VALID,1001.5,VALID,0,VALID,89.8464,VALID,0,VALID,24.7356,VALID,63,VALID,0,
2010-02-18, 00:09:04,VALID,1001.49,VALID,0,VALID,89.8922,VALID,0,VALID,24.7356,VALID,63,VALID,0,
2010-02-18, 00:10:04,VALID,1001.46,VALID,0,VALID,89.938,VALID,0,VALID,24.7337,VALID,58,VALID,0,
2010-02-18, 00:11:04,VALID,1001.47,VALID,0,VALID,89.9456,VALID,0,VALID,24.7356,VALID,7,VALID,0,
2010-02-18, 00:12:04,VALID,1001.43,VALID,0,VALID,90.06,VALID,0,VALID,24.716,VALID,7,VALID,0,
2010-02-18, 00:13:04,VALID,1001.43,VALID,0,VALID,90.1058,VALID,0,VALID,24.716,VALID,7,VALID,0,
2010-02-18, 00:14:04,VALID,1001.42,VALID,0,VALID,90.1211,VALID,0,VALID,24.6965,VALID,7,VALID,0,
2010-02-18, 00:15:04,VALID,1001.4,VALID,0,VALID,90.1745,VALID,0,VALID,24.6751,VALID,7,VALID,0,
2010-02-18, 00:16:04,VALID,1001.37,VALID,0,VALID,90.1974,VALID,0,VALID,24.6965,VALID,7,VALID,0,
2010-02-18, 00:17:04,VALID,1001.38,VALID,0,VALID,90.2508,VALID,0,VALID,24.6965,VALID,7,VALID,0,
2010-02-18, 00:18:04,VALID,1001.4,VALID,0,VALID,90.3194,VALID,0,VALID,24.6965,VALID,7,VALID,0,
2010-02-18, 00:19:04,VALID,1001.36,VALID,0,VALID,90.3423,VALID,0,VALID,24.6946,VALID,7,VALID,0,
2010-02-18, 00:20:04,VALID,1001.36,VALID,0,VALID,90.1134,VALID,0,VALID,24.716,VALID,7,VALID,0,
2010-02-18, 00:21:04,VALID,1001.36,VALID,0,VALID,90.0829,VALID,0,VALID,24.6965,VALID,7,VALID,0,
2010-02-18, 00:22:04,VALID,1001.37,VALID,0,VALID,90.1745,VALID,0,VALID,24.6361,VALID,7,VALID,0,
2010-02-18, 00:23:04,VALID,1001.35,VALID,0,VALID,90.3728,VALID,0,VALID,24.6575,VALID,42,VALID,0.382422,
2010-02-18, 00:24:04,VALID,1001.37,VALID,0,VALID,90.4034,VALID,0,VALID,24.6965,VALID,48,VALID,0.406641,
2010-02-18, 00:25:04,VALID,1001.34,VALID,0,VALID,90.3576,VALID,0,VALID,24.6946,VALID,67,VALID,0.644531,
2010-02-18, 00:26:04,VALID,1001.33,VALID,0,VALID,90.0829,VALID,0,VALID,24.6965,VALID,54,VALID,0.835156,
2010-02-18, 00:27:04,VALID,1001.32,VALID,0,VALID,90.1668,VALID,0,VALID,24.716,VALID,53,VALID,0.953516,
2010-02-18, 00:28:04,VALID,1001.29,VALID,0,VALID,90.0143,VALID,0,VALID,24.7356,VALID,60,VALID,0.834766,
2010-02-18, 00:29:04,VALID,1001.3,VALID,0,VALID,89.7014,VALID,0,VALID,24.7941,VALID,49,VALID,0.936719,
2010-02-18, 00:30:04,VALID,1001.29,VALID,0,VALID,89.4649,VALID,0,VALID,24.8136,VALID,49,VALID,1.09141,
2010-02-18, 00:31:04,VALID,1001.27,VALID,0,VALID,89.381,VALID,0,VALID,24.8722,VALID,51,VALID,0.949609,
2010-02-18, 00:32:04,VALID,1001.25,VALID,0,VALID,89.3352,VALID,0,VALID,24.8917,VALID,51,VALID,0.719531,
2010-02-18, 00:33:04,VALID,1001.27,VALID,0,VALID,89.3276,VALID,0,VALID,24.8917,VALID,42,VALID,0.805469,
2010-02-18, 00:34:04,VALID,1001.23,VALID,0,VALID,89.2894,VALID,0,VALID,24.8917,VALID,37,VALID,0.674609,
2010-02-18, 00:35:04,VALID,1001.2,VALID,0,VALID,89.4268,VALID,0,VALID,24.9112,VALID,53,VALID,0.900391,
2010-02-18, 00:36:04,VALID,1001.23,VALID,0,VALID,89.732,VALID,0,VALID,24.9112,VALID,55,VALID,1.02422,
2010-02-18, 00:37:04,VALID,1001.19,VALID,0,VALID,89.8235,VALID,0,VALID,24.9112,VALID,55,VALID,0.901563,
2010-02-18, 00:38:04,VALID,1001.17,VALID,0,VALID,89.7701,VALID,0,VALID,24.9112,VALID,55,VALID,0.673047,
2010-02-18, 00:39:04,VALID,1001.16,VALID,0,VALID,89.8235,VALID,0,VALID,24.9112,VALID,57,VALID,0.630078,
2010-02-18, 00:40:04,VALID,1001.17,VALID,0,VALID,89.9074,VALID,0,VALID,24.8917,VALID,57,VALID,0.491406,
2010-02-18, 00:41:04,VALID,1001.17,VALID,0,VALID,89.9685,VALID,0,VALID,24.8917,VALID,57,VALID,0.303516,
2010-02-18, 00:42:04,VALID,1001.16,VALID,0,VALID,90.0143,VALID,0,VALID,24.8722,VALID,56,VALID,0,
2010-02-18, 00:43:04,VALID,1001.18,VALID,0,VALID,90.06,VALID,0,VALID,24.8527,VALID,56,VALID,0,
2010-02-18, 00:44:04,VALID,1001.16,VALID,0,VALID,90.1821,VALID,0,VALID,24.8527,VALID,56,VALID,0,
2010-02-18, 00:45:04,VALID,1001.16,VALID,0,VALID,90.2203,VALID,0,VALID,24.8313,VALID,56,VALID,0,
2010-02-18, 00:46:04,VALID,1001.13,VALID,0,VALID,90.2889,VALID,0,VALID,24.8117,VALID,56,VALID,0,
2010-02-18, 00:47:04,VALID,1001.13,VALID,0,VALID,90.3576,VALID,0,VALID,24.7922,VALID,56,VALID,0,
2010-02-18, 00:48:04,VALID,1001.12,VALID,0,VALID,90.4186,VALID,0,VALID,24.7922,VALID,56,VALID,0,
2010-02-18, 00:49:04,VALID,1001.15,VALID,0,VALID,90.4415,VALID,0.112286,VALID,24.7922,VALID,56,VALID,0,
2010-02-18, 00:50:04,VALID,1001.12,VALID,0,VALID,90.5865,VALID,0,VALID,24.7727,VALID,56,VALID,0,
2010-02-18, 00:51:04,VALID,1001.11,VALID,0,VALID,90.5788,VALID,0.112286,VALID,24.7727,VALID,56,VALID,0,
2010-02-18, 00:52:04,VALID,1001.14,VALID,0,VALID,90.5788,VALID,0,VALID,24.7513,VALID,56,VALID,0,
2010-02-18, 00:53:04,VALID,1001.13,VALID,0,VALID,90.5788,VALID,0,VALID,24.7532,VALID,55,VALID,0,
2010-02-18, 00:54:04,VALID,1001.12,VALID,0,VALID,90.5865,VALID,0,VALID,24.7142,VALID,51,VALID,0.487891,
2010-02-18, 00:55:04,VALID,1001.14,VALID,0,VALID,90.6399,VALID,0,VALID,24.6946,VALID,50,VALID,0.61875,
2010-02-18, 00:56:04,VALID,1001.13,VALID,0,VALID,90.7162,VALID,0.112286,VALID,24.6946,VALID,50,VALID,0.897656,
2010-02-18, 00:57:04,VALID,1001.13,VALID,0,VALID,90.7314,VALID,0.112286,VALID,24.6733,VALID,50,VALID,0.988672,
2010-02-18, 00:58:04,VALID,1001.16,VALID,0,VALID,90.6475,VALID,0.112286,VALID,24.6946,VALID,51,VALID,1.04961,
2010-02-18, 00:59:04,VALID,1001.16,VALID,0,VALID,90.6628,VALID,0.112286,VALID,24.6946,VALID,58,VALID,0.967578,
2010-02-18, 01:00:04,VALID,1001.19,VALID,0,VALID,90.6628,VALID,0,VALID,24.716,VALID,60,VALID,0.862891,
2010-02-18, 01:01:04,VALID,1001.19,VALID,0,VALID,90.6323,VALID,0,VALID,24.716,VALID,61,VALID,0.781641,
2010-02-18, 01:02:04,VALID,1001.18,VALID,0,VALID,90.617,VALID,0,VALID,24.7551,VALID,52,VALID,0.832812,
2010-02-18, 01:03:04,VALID,1001.18,VALID,0,VALID,90.6094,VALID,0,VALID,24.7551,VALID,53,VALID,0.834766,
2010-02-18, 01:04:04,VALID,1001.16,VALID,0,VALID,90.5102,VALID,0,VALID,24.7551,VALID,57,VALID,0.854688,
2010-02-18, 01:05:04,VALID,1001.19,VALID,0,VALID,90.4873,VALID,0,VALID,24.7941,VALID,57,VALID,0.808594,
2010-02-18, 01:06:04,VALID,1001.17,VALID,0,VALID,90.4797,VALID,0,VALID,24.7941,VALID,57,VALID,0.700391,
2010-02-18, 01:07:04,VALID,1001.21,VALID,0,VALID,90.472,VALID,0,VALID,24.7941,VALID,61,VALID,0.792578,
2010-02-18, 01:08:04,VALID,1001.18,VALID,0,VALID,90.3805,VALID,0,VALID,24.7941,VALID,58,VALID,0.858203,
2010-02-18, 01:09:04,VALID,1001.15,VALID,0,VALID,90.3881,VALID,0,VALID,24.7746,VALID,55,VALID,0.603906,
2010-02-18, 01:10:04,VALID,1001.19,VALID,0,VALID,90.2203,VALID,0,VALID,24.7532,VALID,74,VALID,0.880469,
2010-02-18, 01:11:04,VALID,1001.19,VALID,0,VALID,90.1134,VALID,0,VALID,24.7746,VALID,74,VALID,0.612109,
2010-02-18, 01:12:04,VALID,1001.17,VALID,0,VALID,90.1668,VALID,0,VALID,24.7551,VALID,70,VALID,0.655859,
2010-02-18, 01:13:04,VALID,1001.2,VALID,0,VALID,90.2126,VALID,0,VALID,24.7746,VALID,60,VALID,0.300391,
2010-02-18, 01:14:04,VALID,1001.17,VALID,0,VALID,90.2126,VALID,0,VALID,24.7941,VALID,60,VALID,0.434375,
2010-02-18, 01:15:04,VALID,1001.17,VALID,0,VALID,90.1897,VALID,0,VALID,24.7941,VALID,60,VALID,0.508203,
2010-02-18, 01:16:05,VALID,1001.15,VALID,0,VALID,90.2355,VALID,0,VALID,24.8136,VALID,70,VALID,0.562891,
2010-02-18, 01:17:05,VALID,1001.15,VALID,0,VALID,90.2431,VALID,0,VALID,24.8136,VALID,74,VALID,0.491797,
2010-02-18, 01:18:05,VALID,1001.15,VALID,0,VALID,90.2508,VALID,0,VALID,24.7941,VALID,74,VALID,0.366016,
2010-02-18, 01:19:05,VALID,1001.15,VALID,0,VALID,90.2126,VALID,0,VALID,24.8136,VALID,74,VALID,0.507422,
2010-02-18, 01:20:05,VALID,1001.15,VALID,0,VALID,90.1745,VALID,0,VALID,24.7941,VALID,74,VALID,0.469531,
2010-02-18, 01:21:05,VALID,1001.15,VALID,0,VALID,90.1516,VALID,0,VALID,24.7941,VALID,74,VALID,0.332422,
2010-02-18, 01:22:05,VALID,1001.1,VALID,0,VALID,90.0982,VALID,0,VALID,24.7941,VALID,74,VALID,0.296875,
2010-02-18, 01:23:05,VALID,1001.09,VALID,0,VALID,90.1668,VALID,0,VALID,24.7922,VALID,74,VALID,0.178516,
2010-02-18, 01:24:05,VALID,1001.09,VALID,0,VALID,90.0753,VALID,0,VALID,24.8136,VALID,74,VALID,0,
2010-02-18, 01:25:05,VALID,1001.1,VALID,0,VALID,90.0524,VALID,0,VALID,24.8136,VALID,74,VALID,0,
2010-02-18, 01:26:05,VALID,1001.05,VALID,0,VALID,89.8998,VALID,0,VALID,24.8117,VALID,74,VALID,0,
2010-02-18, 01:27:05,VALID,1001.1,VALID,0,VALID,89.8617,VALID,0,VALID,24.8332,VALID,74,VALID,0,
2010-02-18, 01:28:05,VALID,1001.07,VALID,0,VALID,89.7625,VALID,0,VALID,24.8527,VALID,74,VALID,0,
2010-02-18, 01:29:04,VALID,1001.05,VALID,0,VALID,89.6862,VALID,0,VALID,24.8722,VALID,74,VALID,0,
2010-02-18, 01:30:05,VALID,1001,VALID,0,VALID,89.6938,VALID,0,VALID,24.8917,VALID,74,VALID,0,
2010-02-18, 01:31:05,VALID,1001.03,VALID,0,VALID,89.648,VALID,0,VALID,24.9112,VALID,74,VALID,0,
2010-02-18, 01:32:05,VALID,1000.99,VALID,0,VALID,89.5717,VALID,0,VALID,24.9112,VALID,73,VALID,0.0625,
2010-02-18, 01:33:05,VALID,1000.98,VALID,0,VALID,89.5489,VALID,0,VALID,24.9112,VALID,71,VALID,0.707031,
2010-02-18, 01:34:05,VALID,1000.96,VALID,0,VALID,89.4878,VALID,0,VALID,24.9112,VALID,68,VALID,0.84375,
2010-02-18, 01:35:05,VALID,1000.96,VALID,0,VALID,89.6404,VALID,0,VALID,24.9112,VALID,68,VALID,0.432422,
2010-02-18, 01:36:05,VALID,1000.93,VALID,0,VALID,89.7625,VALID,0,VALID,24.9308,VALID,72,VALID,0.244531,
2010-02-18, 01:37:05,VALID,1000.96,VALID,0,VALID,89.5183,VALID,0,VALID,24.9093,VALID,90,VALID,0.660937,
2010-02-18, 01:38:05,VALID,1000.92,VALID,0,VALID,89.6633,VALID,0,VALID,24.8898,VALID,90,VALID,0.251953,
2010-02-18, 01:39:05,VALID,1000.89,VALID,0,VALID,89.7167,VALID,0,VALID,24.8703,VALID,99,VALID,0,
2010-02-18, 01:40:05,VALID,1000.86,VALID,0,VALID,89.6862,VALID,0,VALID,24.8722,VALID,107,VALID,0,
2010-02-18, 01:41:05,VALID,1000.85,VALID,0,VALID,89.8006,VALID,0,VALID,24.8313,VALID,110,VALID,0,
2010-02-18, 01:42:05,VALID,1000.83,VALID,0,VALID,89.8846,VALID,0,VALID,24.8117,VALID,118,VALID,0,
2010-02-18, 01:43:05,VALID,1000.81,VALID,0,VALID,89.9837,VALID,0,VALID,24.8332,VALID,120,VALID,0,
2010-02-18, 01:44:05,VALID,1000.79,VALID,0,VALID,90.0677,VALID,0,VALID,24.8136,VALID,127,VALID,0,
2010-02-18, 01:45:05,VALID,1000.77,VALID,0,VALID,90.2126,VALID,0,VALID,24.8136,VALID,127,VALID,0,
2010-02-18, 01:46:05,VALID,1000.78,VALID,0,VALID,90.2203,VALID,0,VALID,24.8136,VALID,128,VALID,0,
2010-02-18, 01:47:05,VALID,1000.74,VALID,0,VALID,90.2279,VALID,0,VALID,24.7922,VALID,131,VALID,0,
2010-02-18, 01:48:05,VALID,1000.74,VALID,0,VALID,90.2126,VALID,0,VALID,24.7922,VALID,156,VALID,0,
2010-02-18, 01:49:05,VALID,1000.7,VALID,0,VALID,90.2203,VALID,0,VALID,24.7941,VALID,159,VALID,0.468359,
2010-02-18, 01:50:05,VALID,1000.68,VALID,0,VALID,90.0677,VALID,0,VALID,24.7746,VALID,155,VALID,0.792969,
2010-02-18, 01:51:05,VALID,1000.65,VALID,0,VALID,90.1211,VALID,0,VALID,24.7532,VALID,151,VALID,0.524219,
2010-02-18, 01:52:05,VALID,1000.62,VALID,0,VALID,90.1974,VALID,0,VALID,24.7551,VALID,148,VALID,0.588672,
2010-02-18, 01:53:05,VALID,1000.56,VALID,0,VALID,90.3194,VALID,0,VALID,24.7746,VALID,148,VALID,0.442969,
2010-02-18, 01:54:05,VALID,1000.52,VALID,0,VALID,90.3271,VALID,0,VALID,24.7746,VALID,150,VALID,0.737109,
2010-02-18, 01:55:05,VALID,1000.5,VALID,0,VALID,90.5331,VALID,0,VALID,24.7941,VALID,148,VALID,0.812891,
2010-02-18, 01:56:05,VALID,1000.45,VALID,0,VALID,90.5941,VALID,0,VALID,24.7941,VALID,148,VALID,0.699219,
2010-02-18, 01:57:05,VALID,1000.43,VALID,0,VALID,90.5941,VALID,0,VALID,24.7727,VALID,146,VALID,0.680859,
2010-02-18, 01:58:05,VALID,1000.39,VALID,0,VALID,90.7162,VALID,0,VALID,24.7941,VALID,145,VALID,0.725781,
2010-02-18, 01:59:05,VALID,1000.38,VALID,0,VALID,90.7849,VALID,0,VALID,24.7727,VALID,136,VALID,0.925781,
2010-02-18, 02:00:05,VALID,1000.36,VALID,0,VALID,90.7238,VALID,0,VALID,24.7727,VALID,126,VALID,0.842188,
2010-02-18, 02:01:05,VALID,1000.36,VALID,0,VALID,90.7162,VALID,0,VALID,24.7746,VALID,121,VALID,0.802734,
2010-02-18, 02:02:05,VALID,1000.34,VALID,0,VALID,90.8001,VALID,0,VALID,24.7356,VALID,119,VALID,0.691406,
2010-02-18, 02:03:05,VALID,1000.34,VALID,0,VALID,90.8535,VALID,0,VALID,24.7356,VALID,107,VALID,0.687109,
2010-02-18, 02:04:05,VALID,1000.34,VALID,0,VALID,90.9222,VALID,0,VALID,24.6946,VALID,107,VALID,0.136719,
2010-02-18, 02:05:05,VALID,1000.3,VALID,0,VALID,90.9909,VALID,0,VALID,24.6965,VALID,107,VALID,0,
2010-02-18, 02:06:05,VALID,1000.27,VALID,0,VALID,91.029,VALID,0,VALID,24.677,VALID,107,VALID,0,
2010-02-18, 02:07:05,VALID,1000.26,VALID,0,VALID,91.0443,VALID,0,VALID,24.6575,VALID,107,VALID,0,
2010-02-18, 02:08:05,VALID,1000.26,VALID,0,VALID,91.2045,VALID,0,VALID,24.6575,VALID,107,VALID,0,
2010-02-18, 02:09:05,VALID,1000.28,VALID,0,VALID,91.2655,VALID,0,VALID,24.638,VALID,107,VALID,0,
2010-02-18, 02:10:05,VALID,1000.28,VALID,0,VALID,91.3037,VALID,0,VALID,24.638,VALID,107,VALID,0,
2010-02-18, 02:11:05,VALID,1000.26,VALID,0,VALID,91.2884,VALID,0,VALID,24.6184,VALID,107,VALID,0,
2010-02-18, 02:12:05,VALID,1000.24,VALID,0,VALID,91.235,VALID,0,VALID,24.5794,VALID,107,VALID,0,
2010-02-18, 02:13:05,VALID,1000.27,VALID,0,VALID,91.38,VALID,0,VALID,24.5599,VALID,107,VALID,0,
2010-02-18, 02:14:05,VALID,1000.25,VALID,0,VALID,91.4791,VALID,0,VALID,24.5599,VALID,107,VALID,0,
2010-02-18, 02:15:05,VALID,1000.23,VALID,0,VALID,91.4486,VALID,0,VALID,24.5385,VALID,107,VALID,0,
2010-02-18, 02:16:05,VALID,1000.24,VALID,0,VALID,91.4486,VALID,0,VALID,24.5209,VALID,95,VALID,0,
2010-02-18, 02:17:05,VALID,1000.21,VALID,0,VALID,91.4181,VALID,0,VALID,24.4818,VALID,95,VALID,0,
2010-02-18, 02:18:05,VALID,1000.23,VALID,0,VALID,91.3876,VALID,0,VALID,24.4428,VALID,95,VALID,0,
2010-02-18, 02:19:05,VALID,1000.18,VALID,0,VALID,91.4028,VALID,0,VALID,24.3824,VALID,95,VALID,0,
2010-02-18, 02:20:05,VALID,1000.17,VALID,0,VALID,91.4181,VALID,0,VALID,24.3647,VALID,95,VALID,0,
2010-02-18, 02:21:05,VALID,1000.12,VALID,0,VALID,91.5554,VALID,0,VALID,24.3257,VALID,95,VALID,0,
2010-02-18, 02:22:05,VALID,1000.11,VALID,0,VALID,91.7309,VALID,0,VALID,24.3257,VALID,63,VALID,0,
2010-02-18, 02:23:05,VALID,1000.11,VALID,0,VALID,91.8072,VALID,0,VALID,24.3257,VALID,56,VALID,0,
2010-02-18, 02:24:05,VALID,1000.13,VALID,0,VALID,91.8759,VALID,0,VALID,24.3452,VALID,50,VALID,0,
2010-02-18, 02:25:05,VALID,1000.12,VALID,0,VALID,91.8148,VALID,0,VALID,24.3043,VALID,41,VALID,0,
2010-02-18, 02:26:05,VALID,1000.14,VALID,0,VALID,91.8377,VALID,0,VALID,24.3062,VALID,41,VALID,0,
2010-02-18, 02:27:05,VALID,1000.15,VALID,0,VALID,92.0056,VALID,0,VALID,24.3257,VALID,41,VALID,0,
2010-02-18, 02:28:05,VALID,1000.12,VALID,0,VALID,91.9903,VALID,0,VALID,24.3238,VALID,41,VALID,0,
2010-02-18, 02:29:05,VALID,1000.15,VALID,0,VALID,92.0514,VALID,0,VALID,24.3647,VALID,41,VALID,0,
2010-02-18, 02:30:05,VALID,1000.12,VALID,0,VALID,91.8911,VALID,0,VALID,24.3452,VALID,41,VALID,0,
2010-02-18, 02:31:05,VALID,1000.11,VALID,0,VALID,91.914,VALID,0,VALID,24.3062,VALID,41,VALID,0,
2010-02-18, 02:32:05,VALID,1000.11,VALID,0,VALID,91.914,VALID,0,VALID,24.2848,VALID,37,VALID,0,
2010-02-18, 02:33:05,VALID,1000.11,VALID,0,VALID,91.9674,VALID,0,VALID,24.2866,VALID,35,VALID,0,
2010-02-18, 02:34:05,VALID,1000.08,VALID,0,VALID,91.998,VALID,0,VALID,24.2866,VALID,35,VALID,0,
2010-02-18, 02:35:05,VALID,1000.06,VALID,0,VALID,91.9827,VALID,0,VALID,24.2476,VALID,35,VALID,0,
2010-02-18, 02:36:05,VALID,1000.05,VALID,0,VALID,92.0285,VALID,0,VALID,24.2263,VALID,35,VALID,0,
2010-02-18, 02:37:05,VALID,1000.01,VALID,0,VALID,92.0437,VALID,0,VALID,24.2281,VALID,35,VALID,0,
2010-02-18, 02:38:05,VALID,1000.01,VALID,0,VALID,92.0361,VALID,0,VALID,24.2281,VALID,22,VALID,0,
2010-02-18, 02:39:05,VALID,1000,VALID,0,VALID,91.9369,VALID,0,VALID,24.1482,VALID,18,VALID,0,
2010-02-18, 02:40:05,VALID,1000.01,VALID,0,VALID,91.8301,VALID,0,VALID,24.111,VALID,18,VALID,0,
2010-02-18, 02:41:05,VALID,999.989,VALID,0,VALID,91.9217,VALID,0,VALID,24.0525,VALID,18,VALID,0,
2010-02-18, 02:42:05,VALID,999.967,VALID,0,VALID,91.8911,VALID,0,VALID,24.0134,VALID,18,VALID,0,
2010-02-18, 02:43:05,VALID,999.973,VALID,0,VALID,91.9598,VALID,0,VALID,23.9744,VALID,18,VALID,0,
2010-02-18, 02:44:05,VALID,999.978,VALID,0,VALID,91.998,VALID,0,VALID,23.9336,VALID,18,VALID,0,
2010-02-18, 02:45:05,VALID,1000.04,VALID,0,VALID,92.059,VALID,0,VALID,23.9159,VALID,20,VALID,0,
2010-02-18, 02:46:05,VALID,1000.04,VALID,0,VALID,92.3413,VALID,0,VALID,23.9549,VALID,20,VALID,0,
2010-02-18, 02:47:05,VALID,1000.05,VALID,0,VALID,92.5549,VALID,0,VALID,23.9939,VALID,20,VALID,0,
2010-02-18, 02:48:05,VALID,1000.07,VALID,0,VALID,92.5854,VALID,0,VALID,24.0329,VALID,20,VALID,0,
2010-02-18, 02:49:05,VALID,1000.06,VALID,0,VALID,92.5854,VALID,0,VALID,24.0525,VALID,20,VALID,0,
2010-02-18, 02:50:05,VALID,1000.08,VALID,0,VALID,92.532,VALID,0,VALID,24.0311,VALID,21,VALID,0,
2010-02-18, 02:51:05,VALID,1000.08,VALID,0,VALID,92.532,VALID,0,VALID,24.0525,VALID,33,VALID,0.657031,
2010-02-18, 02:52:05,VALID,1000.11,VALID,0,VALID,92.4939,VALID,0,VALID,24.0506,VALID,39,VALID,0.679297,
2010-02-18, 02:53:05,VALID,1000.11,VALID,0,VALID,92.5549,VALID,0,VALID,24.0506,VALID,39,VALID,0.719141,
2010-02-18, 02:54:05,VALID,1000.09,VALID,0,VALID,92.6007,VALID,0,VALID,24.072,VALID,39,VALID,0.721094,
2010-02-18, 02:55:05,VALID,1000.09,VALID,0,VALID,92.6236,VALID,0,VALID,24.072,VALID,39,VALID,0.638281,
2010-02-18, 02:56:05,VALID,1000.09,VALID,0,VALID,92.5473,VALID,0,VALID,24.072,VALID,39,VALID,0.558984,
2010-02-18, 02:57:05,VALID,1000.1,VALID,0,VALID,92.4863,VALID,0,VALID,24.0525,VALID,39,VALID,0.8375,
2010-02-18, 02:58:05,VALID,1000.11,VALID,0,VALID,92.3794,VALID,0,VALID,24.0134,VALID,38,VALID,0.772266,
2010-02-18, 02:59:05,VALID,1000.1,VALID,0,VALID,92.3718,VALID,0,VALID,23.9744,VALID,37,VALID,0.828516,
2010-02-18, 03:00:05,VALID,1000.1,VALID,0,VALID,92.4328,VALID,0,VALID,23.9549,VALID,32,VALID,0.985547,
2010-02-18, 03:01:05,VALID,1000.12,VALID,0,VALID,92.4405,VALID,0,VALID,23.9159,VALID,28,VALID,0.998828,
2010-02-18, 03:02:05,VALID,1000.12,VALID,0,VALID,92.4863,VALID,0,VALID,23.9159,VALID,24,VALID,0.860937,
2010-02-18, 03:03:05,VALID,1000.14,VALID,0,VALID,92.41,VALID,0,VALID,23.8963,VALID,24,VALID,0.584766,
2010-02-18, 03:04:05,VALID,1000.11,VALID,0,VALID,92.3871,VALID,0,VALID,23.8768,VALID,24,VALID,0.366016,
2010-02-18, 03:05:05,VALID,1000.09,VALID,0,VALID,92.3184,VALID,0,VALID,23.8573,VALID,24,VALID,0.609375,
2010-02-18, 03:06:05,VALID,1000.1,VALID,0,VALID,92.3108,VALID,0,VALID,23.8183,VALID,24,VALID,0.625781,
2010-02-18, 03:07:05,VALID,1000.1,VALID,0,VALID,92.4023,VALID,0,VALID,23.7988,VALID,24,VALID,0.763281,
2010-02-18, 03:08:05,VALID,1000.1,VALID,0,VALID,92.4863,VALID,0,VALID,23.8183,VALID,24,VALID,0.593359,
2010-02-18, 03:09:05,VALID,1000.1,VALID,0,VALID,92.4863,VALID,0,VALID,23.8183,VALID,24,VALID,0.527734,
2010-02-18, 03:10:05,VALID,1000.11,VALID,0,VALID,92.5702,VALID,0,VALID,23.8165,VALID,24,VALID,0.538672,
2010-02-18, 03:11:05,VALID,1000.1,VALID,0,VALID,92.4863,VALID,0,VALID,23.8573,VALID,24,VALID,0.708984,
2010-02-18, 03:12:05,VALID,1000.1,VALID,0,VALID,92.4405,VALID,0,VALID,23.8378,VALID,27,VALID,0.689062,
2010-02-18, 03:13:05,VALID,1000.11,VALID,0,VALID,92.5091,VALID,0,VALID,23.8573,VALID,30,VALID,0.683594,
2010-02-18, 03:14:05,VALID,1000.1,VALID,0,VALID,92.4176,VALID,0,VALID,23.8378,VALID,33,VALID,0.735156,
2010-02-18, 03:15:05,VALID,1000.12,VALID,0,VALID,92.3642,VALID,0,VALID,23.8378,VALID,38,VALID,0.787109,
2010-02-18, 03:16:05,VALID,1000.11,VALID,0,VALID,92.3947,VALID,0,VALID,23.8165,VALID,38,VALID,0.916406,
2010-02-18, 03:17:05,VALID,1000.1,VALID,0,VALID,92.3871,VALID,0,VALID,23.8378,VALID,41,VALID,0.730859,
2010-02-18, 03:18:05,VALID,1000.12,VALID,0,VALID,92.3642,VALID,0,VALID,23.8378,VALID,44,VALID,0.635156,
2010-02-18, 03:19:05,VALID,1000.1,VALID,0,VALID,92.3489,VALID,0,VALID,23.8378,VALID,51,VALID,0.464453,
2010-02-18, 03:20:05,VALID,1000.05,VALID,0,VALID,92.3794,VALID,0,VALID,23.8165,VALID,51,VALID,0.469922,
2010-02-18, 03:21:05,VALID,1000.02,VALID,0,VALID,92.4252,VALID,0,VALID,23.836,VALID,51,VALID,0.307422,
2010-02-18, 03:22:05,VALID,1000.04,VALID,0,VALID,92.4023,VALID,0,VALID,23.8378,VALID,51,VALID,0.261328,
2010-02-18, 03:23:05,VALID,1000.01,VALID,0,VALID,92.3413,VALID,0,VALID,23.8378,VALID,51,VALID,0.257813,
2010-02-18, 03:24:05,VALID,1000.03,VALID,0,VALID,92.3871,VALID,0,VALID,23.7775,VALID,51,VALID,0,
2010-02-18, 03:25:05,VALID,1000.01,VALID,0,VALID,92.471,VALID,0,VALID,23.8183,VALID,51,VALID,0,
2010-02-18, 03:26:05,VALID,1000.03,VALID,0,VALID,92.5091,VALID,0,VALID,23.8378,VALID,51,VALID,0,
2010-02-18, 03:27:05,VALID,1000.02,VALID,0,VALID,92.4863,VALID,0,VALID,23.797,VALID,51,VALID,0,
2010-02-18, 03:28:05,VALID,1000.04,VALID,0,VALID,92.41,VALID,0,VALID,23.7988,VALID,51,VALID,0,
2010-02-18, 03:29:05,VALID,1000.01,VALID,0,VALID,92.3337,VALID,0,VALID,23.7597,VALID,51,VALID,0,
2010-02-18, 03:30:05,VALID,1000.04,VALID,0,VALID,92.3413,VALID,0,VALID,23.7207,VALID,51,VALID,0,
2010-02-18, 03:31:05,VALID,1000.05,VALID,0,VALID,92.4557,VALID,0,VALID,23.7012,VALID,51,VALID,0,
2010-02-18, 03:32:05,VALID,1000.05,VALID,0,VALID,92.5015,VALID,0.112286,VALID,23.6799,VALID,51,VALID,0,
2010-02-18, 03:33:05,VALID,1000.04,VALID,0,VALID,92.5244,VALID,0,VALID,23.7012,VALID,51,VALID,0,
2010-02-18, 03:34:05,VALID,1000.04,VALID,0,VALID,92.5015,VALID,0,VALID,23.6817,VALID,51,VALID,0,
2010-02-18, 03:35:05,VALID,1000.05,VALID,0,VALID,92.471,VALID,0,VALID,23.6409,VALID,51,VALID,0,
2010-02-18, 03:36:05,VALID,1000.07,VALID,0,VALID,92.4939,VALID,0,VALID,23.6427,VALID,51,VALID,0,
2010-02-18, 03:37:05,VALID,1000.03,VALID,0,VALID,92.5854,VALID,0,VALID,23.6214,VALID,51,VALID,0,
2010-02-18, 03:38:05,VALID,1000.03,VALID,0,VALID,92.677,VALID,0,VALID,23.6817,VALID,51,VALID,0,
2010-02-18, 03:39:05,VALID,1000.04,VALID,0,VALID,92.7151,VALID,0,VALID,23.6799,VALID,51,VALID,0,
2010-02-18, 03:40:05,VALID,1000.03,VALID,0,VALID,92.7609,VALID,0,VALID,23.7012,VALID,51,VALID,0,
2010-02-18, 03:41:05,VALID,1000.03,VALID,0,VALID,92.7685,VALID,0,VALID,23.6994,VALID,51,VALID,0,
2010-02-18, 03:42:05,VALID,1000.02,VALID,0,VALID,92.7685,VALID,0,VALID,23.7207,VALID,51,VALID,0,
2010-02-18, 03:43:05,VALID,999.995,VALID,0,VALID,92.7609,VALID,0,VALID,23.7402,VALID,51,VALID,0,
2010-02-18, 03:44:05,VALID,999.986,VALID,0,VALID,92.7609,VALID,0,VALID,23.7597,VALID,51,VALID,0,
2010-02-18, 03:45:05,VALID,1000.02,VALID,0,VALID,92.8067,VALID,0,VALID,23.7384,VALID,51,VALID,0,
2010-02-18, 03:46:05,VALID,1000.01,VALID,0,VALID,92.822,VALID,0,VALID,23.7579,VALID,53,VALID,0,
2010-02-18, 03:47:05,VALID,1000.02,VALID,0,VALID,92.8296,VALID,0,VALID,23.7793,VALID,53,VALID,0,
2010-02-18, 03:48:05,VALID,1000.04,VALID,0,VALID,92.8448,VALID,0,VALID,23.7579,VALID,53,VALID,0,
2010-02-18, 03:49:05,VALID,1000.06,VALID,0,VALID,92.8677,VALID,0,VALID,23.7775,VALID,53,VALID,0,
2010-02-18, 03:50:05,VALID,1000.07,VALID,0,VALID,92.8525,VALID,0,VALID,23.7988,VALID,53,VALID,0,
2010-02-18, 03:51:05,VALID,1000.06,VALID,0,VALID,92.8601,VALID,0,VALID,23.8183,VALID,53,VALID,0,
2010-02-18, 03:52:05,VALID,1000.1,VALID,0,VALID,92.8448,VALID,0,VALID,23.8183,VALID,53,VALID,0,
2010-02-18, 03:53:05,VALID,1000.13,VALID,0,VALID,92.8372,VALID,0,VALID,23.8378,VALID,53,VALID,0,
2010-02-18, 03:54:05,VALID,1000.17,VALID,0,VALID,92.8372,VALID,0,VALID,23.8378,VALID,53,VALID,0,